Weather History for Mullan Pass, ID

Change the Weather History Date:

Monday, February 25, 2013

  Actual Average (K3TH) Record (K3TH)
Temperature  
Mean Temperature 24 °F -  
Max Temperature 26 °F 38 °F 41 °F (1999)
Min Temperature 21 °F 25 °F 8 °F (2002)
Degree Days  
Heating Degree Days 42    
Moisture  
Dew Point 19 °F    
Average Humidity 86    
Maximum Humidity 93    
Minimum Humidity 80    
Precipitation  
Precipitation 0.75 in - - ()
Sea Level Pressure  
Sea Level Pressure 29.85 in    
Wind  
Wind Speed 7 mph (West)    
Max Wind Speed 13 mph    
Max Gust Speed 26 mph    
Visibility 2 miles    
Events Fog , Snow    
Averages and records for this station are not official NWS values.
T = Trace of Precipitation, MM = Missing Value Source: NWS Daily Summary

Daily Weather History Graph

Daily Weather History Graph

Search for Another Location

Airport:

Trip Planner

Search our weather history database for the weather conditions in past years. The results will help you decide how hot, cold, wet, or windy it might be!

Date:

Astronomy

Feb. 25, 2013 Rise Set
Actual Time 6:29 AM PST 5:22 PM PST
Civil Twilight 5:58 AM PST 5:53 PM PST
Nautical Twilight 5:23 AM PST 6:28 PM PST
Astronomical Twilight 4:47 AM PST 7:04 PM PST
Moon 5:44 PM PST (2/25) 5:59 AM PST (2/25)
Length of Visible Light 11h 54m
Length of Day
10h 52m
Full, 100% of the Moon is Illuminated
Feb 25
Full
Feb 25
Full
Mar 4
Last Quarter
Mar 11
New
Mar 19
First Quarter

Hourly Weather History & Observations

Time (PST) Temp. Windchill Dew Point Humidity Pressure Visibility Wind Dir Wind Speed Gust Speed Precip Events Conditions
12:44 AM 21.2 °F 13.6 °F 17.6 °F 86% 29.93 in 10.0 mi Variable 5.8 mph - N/A   Overcast
12:53 AM 21.9 °F 14.5 °F 18.0 °F 85% 30.07 in 10.0 mi Variable 5.8 mph - N/A   Overcast
1:24 AM 21.2 °F 13.6 °F 17.6 °F 86% 29.92 in 10.0 mi Variable 5.8 mph - N/A   Overcast
1:53 AM 21.9 °F 13.4 °F 18.0 °F 85% 30.04 in 10.0 mi SSW 6.9 mph - N/A   Overcast
2:07 AM 21.2 °F 13.6 °F 17.6 °F 86% 29.90 in 10.0 mi South 5.8 mph - N/A   Overcast
2:53 AM 21.9 °F 14.5 °F 18.0 °F 85% 30.02 in 10.0 mi South 5.8 mph - N/A   Overcast
3:30 AM 21.2 °F 14.9 °F 17.6 °F 86% 29.85 in 10.0 mi Variable 4.6 mph - N/A   Overcast
3:53 AM 21.9 °F 13.4 °F 18.0 °F 85% 29.99 in 10.0 mi Variable 6.9 mph - N/A   Overcast
4:09 AM 21.2 °F 12.6 °F 17.6 °F 86% 29.84 in 10.0 mi Variable 6.9 mph - N/A   Overcast
4:53 AM 21.9 °F 13.4 °F 18.0 °F 85% 29.96 in 10.0 mi South 6.9 mph - N/A   Overcast
5:44 AM 21.2 °F 13.6 °F 17.6 °F 86% 29.79 in 10.0 mi SSE 5.8 mph - N/A   Overcast
5:53 AM 21.9 °F 15.7 °F 18.0 °F 85% 29.94 in 8.0 mi Variable 4.6 mph - N/A   Overcast
6:04 AM 21.2 °F 14.9 °F 17.6 °F 86% 29.79 in 1.8 mi Variable 4.6 mph - 0.00 in Snow Light Snow
6:14 AM 21.2 °F 14.9 °F 19.4 °F 93% 29.79 in 1.2 mi Variable 4.6 mph - 0.00 in Snow Light Snow
6:30 AM 21.2 °F 14.9 °F 19.4 °F 93% 29.78 in 1.0 mi Variable 4.6 mph - 0.01 in Snow Light Snow
6:41 AM 21.2 °F 13.6 °F 19.4 °F 93% 29.78 in 0.8 mi Variable 5.8 mph - 0.01 in Snow Light Snow
6:53 AM 21.9 °F 14.5 °F 19.0 °F 89% 29.92 in 0.5 mi Variable 5.8 mph - 0.02 in Fog , Snow Snow
7:03 AM 21.2 °F 13.6 °F 19.4 °F 93% 29.77 in 0.2 mi Variable 5.8 mph - 0.00 in Fog , Snow Snow
7:36 AM 21.2 °F 14.9 °F 19.4 °F 93% 29.76 in 0.5 mi Variable 4.6 mph - 0.02 in Fog , Snow Snow
7:53 AM 23.0 °F 15.8 °F 19.0 °F 85% 29.91 in 0.5 mi Variable 5.8 mph - 0.03 in Fog , Snow Snow
8:00 AM 23.0 °F 13.9 °F 19.4 °F 86% 29.76 in 0.2 mi South 8.1 mph - 0.00 in Fog , Snow Snow
8:21 AM 23.0 °F 13.9 °F 19.4 °F 86% 29.76 in - South 8.1 mph - 0.02 in Snow Snow
8:44 AM 23.0 °F 15.8 °F 19.4 °F 86% 29.76 in 0.2 mi Variable 5.8 mph - 0.03 in Fog , Snow Snow
8:53 AM 23.0 °F 14.7 °F 19.0 °F 85% 29.90 in 0.2 mi Variable 6.9 mph - 0.04 in Fog , Snow Snow
9:53 AM 24.1 °F 16.0 °F 19.9 °F 84% 29.89 in 0.2 mi Variable 6.9 mph - 0.05 in Fog , Snow Snow
10:48 AM 24.8 °F 16.9 °F 21.2 °F 86% 29.76 in 0.5 mi Variable 6.9 mph - 0.02 in Fog , Snow Snow
10:53 AM 25.0 °F 16.3 °F 21.0 °F 85% 29.89 in 0.5 mi SW 8.1 mph - 0.02 in Fog , Snow Light Snow
11:13 AM 26.6 °F 17.5 °F 21.2 °F 80% 29.77 in 0.2 mi SW 9.2 mph - 0.01 in Snow Heavy Snow
11:23 AM 24.8 °F 14.6 °F 21.2 °F 86% 29.77 in 0.8 mi SW 10.4 mph 24.2 mph 0.02 in Snow Light Snow
11:53 AM 26.1 °F 15.0 °F 21.0 °F 81% 29.89 in 0.5 mi SW 12.7 mph 21.9 mph 0.02 in Snow Snow
12:20 PM 24.8 °F 16.1 °F 19.4 °F 80% 29.77 in 1.0 mi WSW 8.1 mph 23.0 mph 0.01 in Snow Light Snow
12:35 PM 24.8 °F 16.1 °F 19.4 °F 80% 29.77 in 0.8 mi WSW 8.1 mph 19.6 mph 0.02 in Snow Light Snow
12:48 PM 24.8 °F 15.3 °F 19.4 °F 80% 29.77 in 0.8 mi West 9.2 mph - 0.02 in Snow Light Snow
12:53 PM 25.0 °F 18.1 °F 19.9 °F 81% 29.90 in 0.8 mi Variable 5.8 mph 17.3 mph 0.03 in Snow Light Snow
1:01 PM 24.8 °F 15.3 °F 19.4 °F 80% 29.78 in 1.5 mi WNW 9.2 mph - 0.00 in Snow Light Snow
1:06 PM 24.8 °F 16.1 °F 19.4 °F 80% 29.78 in 2.0 mi WNW 8.1 mph 17.3 mph 0.00 in Snow Light Snow
1:14 PM 24.8 °F 17.9 °F 19.4 °F 80% 29.77 in 3.0 mi Variable 5.8 mph - 0.00 in Snow Light Snow
1:16 PM 24.8 °F 17.9 °F 19.4 °F 80% 29.77 in 1.8 mi SW 5.8 mph - 0.00 in Snow Light Snow
1:18 PM 24.8 °F 17.9 °F 19.4 °F 80% 29.77 in 0.8 mi WSW 5.8 mph - 0.00 in Snow Light Snow
1:24 PM 24.8 °F 16.9 °F 21.2 °F 86% 29.77 in 0.2 mi Variable 6.9 mph - 0.01 in Fog , Snow Snow
1:32 PM 24.8 °F 16.9 °F 21.2 °F 86% 29.78 in 0.5 mi Variable 6.9 mph - 0.01 in Fog , Snow Light Snow
1:40 PM 24.8 °F 16.1 °F 19.4 °F 80% 29.77 in 0.2 mi SW 8.1 mph 21.9 mph 0.02 in Fog , Snow Snow
1:53 PM 24.1 °F 13.7 °F 19.9 °F 84% 29.91 in 0.2 mi SW 10.4 mph 20.7 mph 0.03 in Fog , Snow Snow
2:01 PM 24.8 °F 15.3 °F 21.2 °F 86% 29.77 in 0.5 mi WSW 9.2 mph 20.7 mph 0.00 in Fog , Snow Light Snow
2:17 PM 24.8 °F 17.9 °F 19.4 °F 80% 29.78 in 0.2 mi Variable 5.8 mph - 0.02 in Fog , Snow Heavy Snow
2:34 PM 24.8 °F 16.9 °F 19.4 °F 80% 29.78 in 0.5 mi Variable 6.9 mph - 0.03 in Fog , Snow Snow
2:53 PM 24.1 °F 18.2 °F 21.0 °F 88% 29.91 in 0.5 mi Variable 4.6 mph - 0.04 in Fog , Snow Snow
3:00 PM 24.8 °F 17.9 °F 19.4 °F 80% 29.78 in 0.2 mi Variable 5.8 mph - 0.01 in Fog , Snow Snow
3:20 PM 24.8 °F 14.0 °F 19.4 °F 80% 29.78 in 0.5 mi SW 11.5 mph 23.0 mph 0.02 in Fog , Snow Light Snow
3:25 PM 24.8 °F 16.9 °F 19.4 °F 80% 29.77 in 1.5 mi SW 6.9 mph 23.0 mph 0.02 in Snow Light Snow
3:37 PM 24.8 °F 16.1 °F 19.4 °F 80% 29.78 in 1.2 mi West 8.1 mph 26.5 mph 0.02 in Snow Light Snow
3:40 PM 24.8 °F 19.1 °F 19.4 °F 80% 29.79 in 0.8 mi Variable 4.6 mph 21.9 mph 0.02 in Snow Light Snow
3:53 PM 24.1 °F - 21.0 °F 88% 29.93 in 0.2 mi Calm Calm - 0.04 in Fog , Snow Snow
4:53 PM 23.0 °F 11.7 °F 19.9 °F 88% 29.93 in 0.2 mi NW 11.5 mph 26.5 mph 0.22 in Fog , Snow Heavy Snow
5:27 PM 24.8 °F 15.3 °F 19.4 °F 80% 29.80 in 0.8 mi WNW 9.2 mph 18.4 mph 0.02 in Snow Light Snow
5:31 PM 24.8 °F 14.6 °F 19.4 °F 80% 29.80 in 1.5 mi NW 10.4 mph 20.7 mph 0.02 in Snow Light Snow
5:43 PM 23.0 °F 13.1 °F 19.4 °F 86% 29.80 in 0.8 mi WNW 9.2 mph 19.6 mph 0.03 in Snow Light Snow
5:53 PM 23.0 °F 13.1 °F 19.9 °F 88% 29.94 in 0.5 mi NW 9.2 mph 23.0 mph 0.04 in Fog , Snow Snow
6:02 PM 23.0 °F 13.1 °F 19.4 °F 86% 29.81 in 1.8 mi WNW 9.2 mph 24.2 mph 0.00 in Snow Light Snow
6:04 PM 23.0 °F 11.7 °F 19.4 °F 86% 29.81 in 3.0 mi WNW 11.5 mph 24.2 mph 0.00 in Snow Light Snow
6:10 PM 23.0 °F 13.9 °F 19.4 °F 86% 29.81 in 8.0 mi WNW 8.1 mph 23.0 mph 0.00 in   Overcast
6:27 PM 23.0 °F 14.7 °F 19.4 °F 86% 29.82 in 7.0 mi Variable 6.9 mph - 0.00 in Snow Light Snow
6:36 PM 23.0 °F 15.8 °F 19.4 °F 86% 29.82 in 1.5 mi Variable 5.8 mph 18.4 mph 0.00 in Snow Light Snow
6:39 PM 23.0 °F 14.7 °F 19.4 °F 86% 29.82 in 0.8 mi Variable 6.9 mph - 0.00 in Snow Light Snow
6:47 PM 21.2 °F 11.7 °F 19.4 °F 93% 29.82 in 1.8 mi WNW 8.1 mph 25.3 mph 0.00 in Snow Light Snow
6:50 PM 21.2 °F 12.6 °F 17.6 °F 86% 29.83 in 3.0 mi Variable 6.9 mph 25.3 mph 0.00 in Snow Light Snow
6:53 PM 21.9 °F 11.7 °F 18.0 °F 85% 29.97 in 6.0 mi WNW 9.2 mph - 0.00 in Snow Light Snow
6:57 PM 21.2 °F 12.6 °F 17.6 °F 86% 29.83 in 9.0 mi Variable 6.9 mph - 0.00 in   Overcast
7:04 PM 21.2 °F 11.7 °F 17.6 °F 86% 29.83 in 10.0 mi West 8.1 mph - 0.00 in   Overcast
7:20 PM 21.2 °F 10.9 °F 17.6 °F 86% 29.83 in 1.5 mi West 9.2 mph - 0.00 in Snow Light Snow
7:23 PM 21.2 °F 12.6 °F 17.6 °F 86% 29.83 in 0.8 mi Variable 6.9 mph - 0.00 in Snow Light Snow
7:31 PM 21.2 °F 13.6 °F 19.4 °F 93% 29.83 in 0.2 mi NW 5.8 mph - 0.01 in Fog , Snow Heavy Snow
7:53 PM 23.0 °F 15.8 °F 19.0 °F 85% 29.97 in 0.2 mi Variable 5.8 mph - 0.05 in Fog , Snow Snow
8:23 PM 21.2 °F 12.6 °F 19.4 °F 93% 29.85 in 1.0 mi Variable 6.9 mph 25.3 mph 0.05 in Snow Light Snow
8:35 PM 21.2 °F 12.6 °F 19.4 °F 93% 29.86 in 2.0 mi Variable 6.9 mph 18.4 mph 0.05 in Snow Light Snow
8:49 PM 21.2 °F 16.4 °F 19.4 °F 93% 29.86 in 1.5 mi Variable 3.5 mph - 0.05 in Snow Light Snow
8:53 PM 21.9 °F 15.7 °F 19.9 °F 92% 30.00 in 1.2 mi Variable 4.6 mph - 0.05 in Snow Light Snow
9:02 PM 23.0 °F 17.0 °F 19.4 °F 86% 29.87 in 0.2 mi Variable 4.6 mph - 0.02 in Fog , Snow Heavy Snow
9:12 PM 23.0 °F 13.1 °F 19.4 °F 86% 29.87 in 0.5 mi NW 9.2 mph 18.4 mph 0.03 in Fog , Snow Light Snow
9:17 PM 21.2 °F 13.6 °F 19.4 °F 93% 29.87 in 1.8 mi Variable 5.8 mph 21.9 mph 0.03 in Snow Light Snow
9:20 PM 21.2 °F 13.6 °F 19.4 °F 93% 29.87 in 3.0 mi Variable 5.8 mph 21.9 mph 0.03 in Snow Light Snow
9:23 PM 21.2 °F 11.7 °F 19.4 °F 93% 29.87 in 1.8 mi NW 8.1 mph 21.9 mph 0.03 in Snow Light Snow
9:34 PM 21.2 °F 16.4 °F 19.4 °F 93% 29.88 in 1.2 mi NNW 3.5 mph - 0.03 in Snow Light Snow
9:50 PM 21.2 °F 12.6 °F 19.4 °F 93% 29.88 in 2.0 mi Variable 6.9 mph - 0.03 in Snow Light Snow
9:53 PM 21.9 °F 15.7 °F 19.0 °F 89% 30.02 in 2.0 mi NW 4.6 mph - 0.03 in Snow Light Snow
10:02 PM 21.2 °F 14.9 °F 19.4 °F 93% 29.88 in 1.5 mi Variable 4.6 mph - 0.00 in Snow Light Snow
10:09 PM 21.2 °F 12.6 °F 19.4 °F 93% 29.89 in 1.0 mi Variable 6.9 mph - 0.01 in Snow Light Snow
10:17 PM 21.2 °F 13.6 °F 17.6 °F 86% 29.88 in 0.5 mi Variable 5.8 mph - 0.01 in Fog , Snow Snow
10:53 PM 21.9 °F 12.5 °F 18.0 °F 85% 30.03 in 0.5 mi NW 8.1 mph - 0.03 in Fog , Snow Snow
11:16 PM 21.2 °F 11.7 °F 17.6 °F 86% 29.90 in 1.2 mi NW 8.1 mph 23.0 mph 0.01 in Snow Light Snow
11:24 PM 21.2 °F 10.1 °F 17.6 °F 86% 29.91 in 1.5 mi NW 10.4 mph 19.6 mph 0.01 in Snow Light Snow
11:34 PM 21.2 °F 16.4 °F 17.6 °F 86% 29.91 in 1.2 mi Variable 3.5 mph - 0.01 in Snow Light Snow
11:53 PM 21.9 °F 15.7 °F 18.0 °F 85% 30.05 in 1.0 mi Variable 4.6 mph - 0.01 in Snow Light Snow